Find Kosmos-2485

NORAD ID: 39155 Int'l Des: 2013-019 Owner: VVKO/IACG Country: RU Constellation: GLONASS operational
MEOCIRCULAR

Live-Position

3D-Globus wird geladen...

Über Kosmos-2485

Beschreibung wird geladen...

Nächste Überflüge

Passes for default location (London). Set your location on the main map for personalized predictions.

Höhenverlauf

Loading altitude history...

Zweizeiliger Elementsatz

1 39155U 13019A 26123.33032983 -.00000020 00000-0 00000+0 0 9994
2 39155 65.3965 75.1085 0024278 237.2332 122.5029 2.13103209101329
Epoch: 3. Mai 2026 • Age: 52 hours

Aktueller Status

Höhe 19084.4 km
Geschwindigkeit 3.96 km/s
Subsatellitenpunkt -45.18°S, 124.23°W
Startdatum 26. Apr. 2013
Alter 13 years
Typ other

Technische Details

Klassifizierung Payload
Masse 1450.00 kg
Trockenmasse 1200.00 kg
Gesamtmasse 1450.00 kg
Länge 4.00 m
Durchmesser 1.50 m
Spannweite 7.80 m
Form Cyl + Ant + 2 Pan
Hersteller RESH
Bus-Typ Uragan
Phasenstatus In Orbit
Besitzer/Staat VVKO/IACG/RU

Most Searched